Time,TemperatureF,DewpointF,PressureIn,WindDirection,WindDirectionDegrees,WindSpeedMPH,WindSpeedGustMPH,Humidity,HourlyPrecipIn,Conditions,Clouds,dailyrainin,SoftwareType,DateUTC
2013-02-15 00:00:00,39.9,33.3,30.00,WNW,295,0.0,3.0,77,0.00,,,0.01,Wunderground v.1.15,2013-02-15 05:00:00,
2013-02-15 00:01:00,39.8,33.2,30.01,WNW,295,0.0,3.0,77,0.00,,,0.00,Wunderground v.1.15,2013-02-15 05:01:00,
2013-02-15 00:02:00,39.7,33.4,30.01,WNW,295,0.0,3.0,78,0.00,,,0.00,Wunderground v.1.15,2013-02-15 05:02:00,
2013-02-15 00:03:00,39.7,33.4,30.01,WNW,295,0.0,3.0,78,0.00,,,0.00,Wunderground v.1.15,2013-02-15 05:03:00,
2013-02-15 00:09:00,39.7,33.4,30.01,WNW,295,0.0,3.0,78,0.00,,,0.00,Wunderground v.1.15,2013-02-15 05:09:00,
2013-02-15 00:15:00,39.9,33.6,30.01,NW,310,0.0,3.0,78,0.00,,,0.00,Wunderground v.1.15,2013-02-15 05:15:00,
2013-02-15 00:21:00,39.8,33.5,30.01,NW,310,0.0,3.0,78,0.00,,,0.00,Wunderground v.1.15,2013-02-15 05:21:00,
2013-02-15 00:27:00,39.7,33.4,30.01,NW,310,0.0,3.0,78,0.00,,,0.00,Wunderground v.1.15,2013-02-15 05:27:00,
2013-02-15 00:32:00,39.3,33.0,30.02,NW,311,0.0,3.0,78,0.00,,,0.00,Wunderground v.1.15,2013-02-15 05:32:00,
2013-02-15 00:38:00,38.9,32.9,30.02,NW,310,0.0,3.0,79,0.00,,,0.00,Wunderground v.1.15,2013-02-15 05:38:00,
2013-02-15 00:44:00,39.1,33.5,30.02,NW,310,0.0,3.0,80,0.00,,,0.00,Wunderground v.1.15,2013-02-15 05:44:00,
2013-02-15 00:49:00,39.2,32.9,30.02,WNW,298,0.0,3.0,78,0.00,,,0.00,Wunderground v.1.15,2013-02-15 05:49:00,
2013-02-15 00:55:00,39.4,33.4,30.03,WNW,295,1.0,4.0,79,0.00,,,0.00,Wunderground v.1.15,2013-02-15 05:55:00,
2013-02-15 01:00:00,40.5,33.5,30.03,NW,311,3.0,3.0,76,0.00,,,0.00,Wunderground v.1.15,2013-02-15 06:00:00,
2013-02-15 01:06:00,40.7,33.7,30.03,WNW,297,3.0,3.0,76,0.00,,,0.00,Wunderground v.1.15,2013-02-15 06:06:00,
2013-02-15 01:12:00,40.9,33.9,30.03,NW,326,3.0,7.0,76,0.00,,,0.00,Wunderground v.1.15,2013-02-15 06:12:00,
2013-02-15 01:18:00,40.6,33.6,30.04,NNW,333,4.0,7.0,76,0.00,,,0.00,Wunderground v.1.15,2013-02-15 06:18:00,
2013-02-15 01:24:00,40.2,33.6,30.04,NW,307,3.0,3.0,77,0.00,,,0.00,Wunderground v.1.15,2013-02-15 06:24:00,
2013-02-15 01:31:00,39.7,33.4,30.05,NW,311,3.0,3.0,78,0.00,,,0.00,Wunderground v.1.15,2013-02-15 06:31:00,
2013-02-15 01:37:00,39.3,33.3,30.05,NW,311,2.0,3.0,79,0.00,,,0.00,Wunderground v.1.15,2013-02-15 06:37:00,
2013-02-15 01:43:00,39.2,33.2,30.05,NNW,328,2.0,2.0,79,0.00,,,0.00,Wunderground v.1.15,2013-02-15 06:43:00,
2013-02-15 01:48:00,39.1,33.1,30.05,NNW,328,3.0,6.0,79,0.00,,,0.00,Wunderground v.1.15,2013-02-15 06:48:00,
2013-02-15 01:54:00,38.7,33.1,30.05,NNW,334,3.0,4.0,80,0.00,,,0.00,Wunderground v.1.15,2013-02-15 06:54:00,
2013-02-15 02:00:00,38.5,32.9,30.05,NNW,338,3.0,3.0,80,0.00,,,0.00,Wunderground v.1.15,2013-02-15 07:00:00,
2013-02-15 02:06:00,38.3,33.0,30.05,NW,316,2.0,3.0,81,0.00,,,0.00,Wunderground v.1.15,2013-02-15 07:06:00,
2013-02-15 02:11:00,38.2,32.9,30.05,NW,304,2.0,2.0,81,0.00,,,0.00,Wunderground v.1.15,2013-02-15 07:11:00,
2013-02-15 02:17:00,38.0,32.7,30.05,NW,312,2.0,2.0,81,0.00,,,0.00,Wunderground v.1.15,2013-02-15 07:17:00,
2013-02-15 02:23:00,37.9,32.6,30.05,NW,319,1.0,2.0,81,0.00,,,0.00,Wunderground v.1.15,2013-02-15 07:23:00,
2013-02-15 02:29:00,37.8,32.5,30.05,NNW,342,1.0,2.0,81,0.00,,,0.00,Wunderground v.1.15,2013-02-15 07:29:00,
2013-02-15 02:34:00,37.6,32.6,30.05,NNW,338,0.0,1.0,82,0.00,,,0.00,Wunderground v.1.15,2013-02-15 07:34:00,
2013-02-15 02:40:00,37.4,32.4,30.04,NE,44,1.0,1.0,82,0.00,,,0.00,Wunderground v.1.15,2013-02-15 07:40:00,
2013-02-15 02:46:00,36.9,31.9,30.05,NNE,19,0.0,1.0,82,0.00,,,0.00,Wunderground v.1.15,2013-02-15 07:46:00,
2013-02-15 02:53:00,36.4,32.0,30.04,NE,52,0.0,0.0,84,0.00,,,0.00,Wunderground v.1.15,2013-02-15 07:53:00,
2013-02-15 02:58:00,36.2,31.8,30.04,NE,53,0.0,0.0,84,0.00,,,0.00,Wunderground v.1.15,2013-02-15 07:58:00,
2013-02-15 03:04:00,35.8,31.4,30.04,NE,52,0.0,0.0,84,0.00,,,0.00,Wunderground v.1.15,2013-02-15 08:04:00,
2013-02-15 03:10:00,35.1,31.0,30.04,NE,52,0.0,0.0,85,0.00,,,0.00,Wunderground v.1.15,2013-02-15 08:10:00,
2013-02-15 03:15:00,35.0,31.5,30.03,NE,52,0.0,0.0,87,0.00,,,0.00,Wunderground v.1.15,2013-02-15 08:15:00,
2013-02-15 03:21:00,35.0,31.2,30.04,NE,53,0.0,0.0,86,0.00,,,0.00,Wunderground v.1.15,2013-02-15 08:21:00,
2013-02-15 03:27:00,34.7,31.2,30.04,NE,52,0.0,0.0,87,0.00,,,0.00,Wunderground v.1.15,2013-02-15 08:27:00,
2013-02-15 03:32:00,34.7,31.5,30.04,NE,52,0.0,0.0,88,0.00,,,0.00,Wunderground v.1.15,2013-02-15 08:32:00,
2013-02-15 03:38:00,34.7,31.5,30.04,NE,52,0.0,0.0,88,0.00,,,0.00,Wunderground v.1.15,2013-02-15 08:38:00,
2013-02-15 03:43:00,34.5,31.3,30.04,NE,52,0.0,0.0,88,0.00,,,0.00,Wunderground v.1.15,2013-02-15 08:43:00,
2013-02-15 03:49:00,34.4,31.2,30.04,NE,52,0.0,0.0,88,0.00,,,0.00,Wunderground v.1.15,2013-02-15 08:49:00,
2013-02-15 03:55:00,34.6,31.7,30.04,West,269,0.0,0.0,89,0.00,,,0.00,Wunderground v.1.15,2013-02-15 08:55:00,
2013-02-15 04:00:00,34.9,32.0,30.04,West,269,0.0,0.0,89,0.00,,,0.00,Wunderground v.1.15,2013-02-15 09:00:00,
2013-02-15 04:05:00,35.1,32.2,30.04,ESE,110,0.0,1.0,89,0.00,,,0.00,Wunderground v.1.15,2013-02-15 09:05:00,
2013-02-15 04:11:00,35.3,32.1,30.04,ESE,110,0.0,0.0,88,0.00,,,0.00,Wunderground v.1.15,2013-02-15 09:11:00,
2013-02-15 04:20:00,35.3,32.4,30.04,ESE,105,0.0,0.0,89,0.00,,,0.00,Wunderground v.1.15,2013-02-15 09:20:00,
2013-02-15 04:25:00,35.3,32.4,30.04,ESE,105,0.0,0.0,89,0.00,,,0.00,Wunderground v.1.15,2013-02-15 09:25:00,
2013-02-15 04:31:00,35.2,32.0,30.04,ESE,106,0.0,0.0,88,0.00,,,0.00,Wunderground v.1.15,2013-02-15 09:31:00,
2013-02-15 04:37:00,35.2,32.3,30.05,West,280,0.0,1.0,89,0.00,,,0.00,Wunderground v.1.15,2013-02-15 09:37:00,
2013-02-15 04:42:00,35.5,32.6,30.04,East,89,0.0,0.0,89,0.00,,,0.00,Wunderground v.1.15,2013-02-15 09:42:00,
2013-02-15 04:48:00,35.5,32.6,30.05,SE,139,0.0,0.0,89,0.00,,,0.00,Wunderground v.1.15,2013-02-15 09:48:00,
2013-02-15 04:53:00,35.4,32.5,30.05,SE,139,0.0,0.0,89,0.00,,,0.00,Wunderground v.1.15,2013-02-15 09:53:00,
2013-02-15 04:59:00,35.7,32.8,30.06,WNW,289,1.0,1.0,89,0.00,,,0.00,Wunderground v.1.15,2013-02-15 09:59:00,
2013-02-15 05:04:00,35.9,33.0,30.06,WNW,283,1.0,3.0,89,0.00,,,0.00,Wunderground v.1.15,2013-02-15 10:04:00,
2013-02-15 05:09:00,36.0,33.1,30.05,NW,321,1.0,1.0,89,0.00,,,0.00,Wunderground v.1.15,2013-02-15 10:09:00,
2013-02-15 05:15:00,36.1,32.9,30.05,NE,49,0.0,1.0,88,0.00,,,0.00,Wunderground v.1.15,2013-02-15 10:15:00,
2013-02-15 05:21:00,36.0,33.1,30.04,ESE,117,0.0,1.0,89,0.00,,,0.00,Wunderground v.1.15,2013-02-15 10:21:00,
2013-02-15 05:27:00,35.7,33.1,30.05,SE,136,1.0,2.0,90,0.00,,,0.00,Wunderground v.1.15,2013-02-15 10:27:00,
2013-02-15 05:32:00,35.5,32.9,30.05,SE,136,1.0,1.0,90,0.00,,,0.00,Wunderground v.1.15,2013-02-15 10:32:00,
2013-02-15 05:38:00,35.5,32.9,30.05,SE,136,0.0,1.0,90,0.00,,,0.00,Wunderground v.1.15,2013-02-15 10:38:00,
2013-02-15 05:44:00,35.7,33.3,30.06,West,276,0.0,1.0,91,0.00,,,0.00,Wunderground v.1.15,2013-02-15 10:44:00,
2013-02-15 05:49:00,35.8,33.2,30.06,NW,305,0.0,0.0,90,0.00,,,0.00,Wunderground v.1.15,2013-02-15 10:49:00,
2013-02-15 05:55:00,36.0,33.4,30.06,SW,233,0.0,1.0,90,0.00,,,0.00,Wunderground v.1.15,2013-02-15 10:55:00,
2013-02-15 06:00:00,36.0,33.4,30.05,WSW,239,1.0,1.0,90,0.00,,,0.00,Wunderground v.1.15,2013-02-15 11:00:00,
2013-02-15 06:06:00,36.1,33.2,30.05,ESE,103,1.0,2.0,89,0.00,,,0.00,Wunderground v.1.15,2013-02-15 11:06:00,
2013-02-15 06:11:00,36.4,32.6,30.05,SW,221,0.0,1.0,86,0.00,,,0.00,Wunderground v.1.15,2013-02-15 11:11:00,
2013-02-15 06:17:00,36.7,32.9,30.05,West,277,0.0,1.0,86,0.00,,,0.00,Wunderground v.1.15,2013-02-15 11:17:00,
2013-02-15 06:23:00,36.7,33.2,30.06,WNW,285,1.0,1.0,87,0.00,,,0.00,Wunderground v.1.15,2013-02-15 11:23:00,
2013-02-15 06:29:00,36.7,33.2,30.06,WNW,287,0.0,1.0,87,0.00,,,0.00,Wunderground v.1.15,2013-02-15 11:29:00,
2013-02-15 06:35:00,36.8,33.3,30.07,WNW,291,1.0,3.0,87,0.00,,,0.00,Wunderground v.1.15,2013-02-15 11:35:00,
2013-02-15 06:40:00,36.7,33.2,30.07,WNW,301,2.0,2.0,87,0.00,,,0.00,Wunderground v.1.15,2013-02-15 11:40:00,
2013-02-15 06:46:00,36.6,33.1,30.07,West,277,2.0,3.0,87,0.00,,,0.00,Wunderground v.1.15,2013-02-15 11:46:00,
2013-02-15 06:51:00,36.6,33.1,30.07,WSW,239,1.0,1.0,87,0.00,,,0.00,Wunderground v.1.15,2013-02-15 11:51:00,
2013-02-15 06:57:00,36.4,33.2,30.07,SE,141,1.0,1.0,88,0.00,,,0.00,Wunderground v.1.15,2013-02-15 11:57:00,
2013-02-15 07:02:00,36.2,33.3,30.07,SSE,159,0.0,1.0,89,0.00,,,0.00,Wunderground v.1.15,2013-02-15 12:02:00,
2013-02-15 07:08:00,36.3,33.4,30.07,SE,141,1.0,2.0,89,0.00,,,0.00,Wunderground v.1.15,2013-02-15 12:08:00,
2013-02-15 07:14:00,36.4,33.2,30.07,SE,132,1.0,1.0,88,0.00,,,0.00,Wunderground v.1.15,2013-02-15 12:14:00,
2013-02-15 07:20:00,36.4,33.2,30.06,SSE,156,1.0,1.0,88,0.00,,,0.00,Wunderground v.1.15,2013-02-15 12:20:00,
2013-02-15 07:25:00,36.3,32.8,30.07,South,169,1.0,1.0,87,0.00,,,0.00,Wunderground v.1.15,2013-02-15 12:25:00,
2013-02-15 07:31:00,36.4,33.2,30.08,WSW,243,0.0,0.0,88,0.00,,,0.00,Wunderground v.1.15,2013-02-15 12:31:00,
2013-02-15 07:37:00,36.4,32.9,30.08,SW,231,0.0,0.0,87,0.00,,,0.00,Wunderground v.1.15,2013-02-15 12:37:00,
2013-02-15 07:43:00,36.4,33.2,30.09,WSW,243,1.0,1.0,88,0.00,,,0.00,Wunderground v.1.15,2013-02-15 12:43:00,
2013-02-15 07:48:00,36.5,33.0,30.09,NNW,336,1.0,2.0,87,0.00,,,0.00,Wunderground v.1.15,2013-02-15 12:48:00,
2013-02-15 07:54:00,36.7,32.9,30.09,WNW,298,2.0,3.0,86,0.00,,,0.00,Wunderground v.1.15,2013-02-15 12:54:00,
2013-02-15 08:00:00,36.8,33.0,30.09,NW,323,2.0,2.0,86,0.00,,,0.00,Wunderground v.1.15,2013-02-15 13:00:00,
2013-02-15 08:06:00,36.8,33.0,30.10,NNW,327,3.0,6.0,86,0.00,,,0.00,Wunderground v.1.15,2013-02-15 13:06:00,
2013-02-15 08:12:00,36.5,33.0,30.10,WNW,287,4.0,6.0,87,0.00,,,0.00,Wunderground v.1.15,2013-02-15 13:12:00,
2013-02-15 08:17:00,35.8,32.9,30.10,NW,304,4.0,6.0,89,0.00,,,0.00,Wunderground v.1.15,2013-02-15 13:17:00,
2013-02-15 08:23:00,35.2,32.6,30.10,WNW,283,2.0,3.0,90,0.00,,,0.00,Wunderground v.1.15,2013-02-15 13:23:00,
2013-02-15 08:28:00,34.5,32.4,30.11,WNW,287,1.0,3.0,92,0.00,,,0.00,Wunderground v.1.15,2013-02-15 13:28:00,
2013-02-15 08:34:00,34.2,32.4,30.11,West,280,1.0,1.0,93,0.00,,,0.00,Wunderground v.1.15,2013-02-15 13:34:00,
2013-02-15 08:39:00,34.0,32.2,30.11,West,280,0.0,0.0,93,0.00,,,0.01,Wunderground v.1.15,2013-02-15 13:39:00,
2013-02-15 08:45:00,33.9,32.1,30.11,West,279,0.0,0.0,93,0.00,,,0.01,Wunderground v.1.15,2013-02-15 13:45:00,
2013-02-15 08:51:00,33.8,32.3,30.11,SE,141,0.0,0.0,94,0.00,,,0.01,Wunderground v.1.15,2013-02-15 13:51:00,
2013-02-15 08:56:00,33.7,32.2,30.10,SE,136,0.0,2.0,94,0.00,,,0.01,Wunderground v.1.15,2013-02-15 13:56:00,
2013-02-15 09:01:00,33.7,32.2,30.10,SE,141,1.0,1.0,94,0.00,,,0.01,Wunderground v.1.15,2013-02-15 14:01:00,
2013-02-15 09:06:00,33.8,32.5,30.10,SE,146,1.0,1.0,95,0.00,,,0.01,Wunderground v.1.15,2013-02-15 14:06:00,
2013-02-15 09:12:00,33.9,32.6,30.10,SE,143,0.0,1.0,95,0.00,,,0.02,Wunderground v.1.15,2013-02-15 14:12:00,
2013-02-15 09:18:00,34.0,32.7,30.10,SSE,152,1.0,3.0,95,0.00,,,0.02,Wunderground v.1.15,2013-02-15 14:18:00,
2013-02-15 09:24:00,34.2,32.9,30.10,SSE,147,1.0,1.0,95,0.00,,,0.02,Wunderground v.1.15,2013-02-15 14:24:00,
2013-02-15 09:29:00,34.5,33.2,30.10,SSE,153,1.0,1.0,95,0.00,,,0.02,Wunderground v.1.15,2013-02-15 14:29:00,
2013-02-15 09:36:00,34.8,33.8,30.10,SSW,203,1.0,1.0,96,0.00,,,0.02,Wunderground v.1.15,2013-02-15 14:36:00,
2013-02-15 09:42:00,35.2,33.9,30.09,SE,143,1.0,2.0,95,0.00,,,0.02,Wunderground v.1.15,2013-02-15 14:42:00,
2013-02-15 09:48:00,35.4,34.1,30.10,SSE,158,1.0,2.0,95,0.00,,,0.02,Wunderground v.1.15,2013-02-15 14:48:00,
2013-02-15 09:53:00,35.5,34.2,30.10,South,174,1.0,1.0,95,0.00,,,0.02,Wunderground v.1.15,2013-02-15 14:53:00,
2013-02-15 09:59:00,35.6,34.3,30.10,SSW,203,1.0,2.0,95,0.00,,,0.02,Wunderground v.1.15,2013-02-15 14:59:00,
2013-02-15 10:04:00,35.8,34.5,30.10,South,170,0.0,1.0,95,0.00,,,0.02,Wunderground v.1.15,2013-02-15 15:04:00,
2013-02-15 10:10:00,36.0,34.7,30.10,SSW,198,0.0,0.0,95,0.00,,,0.02,Wunderground v.1.15,2013-02-15 15:10:00,
2013-02-15 10:16:00,36.1,34.5,30.10,South,173,1.0,2.0,94,0.00,,,0.02,Wunderground v.1.15,2013-02-15 15:16:00,
2013-02-15 10:22:00,36.4,34.8,30.10,South,183,0.0,1.0,94,0.00,,,0.02,Wunderground v.1.15,2013-02-15 15:22:00,
2013-02-15 10:27:00,36.5,34.9,30.10,WSW,245,0.0,2.0,94,0.00,,,0.02,Wunderground v.1.15,2013-02-15 15:27:00,
2013-02-15 10:35:00,36.5,34.7,30.10,SW,233,1.0,1.0,93,0.00,,,0.02,Wunderground v.1.15,2013-02-15 15:35:00,
2013-02-15 10:41:00,36.4,34.8,30.10,WSW,239,1.0,1.0,94,0.00,,,0.02,Wunderground v.1.15,2013-02-15 15:41:00,
2013-02-15 10:46:00,36.7,35.4,30.10,South,191,1.0,2.0,95,0.00,,,0.02,Wunderground v.1.15,2013-02-15 15:46:00,
2013-02-15 10:51:00,36.7,35.1,30.10,SW,224,1.0,1.0,94,0.00,,,0.02,Wunderground v.1.15,2013-02-15 15:51:00,
2013-02-15 10:57:00,37.0,35.2,30.11,WSW,249,1.0,1.0,93,0.00,,,0.02,Wunderground v.1.15,2013-02-15 15:57:00,
2013-02-15 11:02:00,37.1,35.3,30.11,WSW,250,1.0,4.0,93,0.00,,,0.02,Wunderground v.1.15,2013-02-15 16:02:00,
2013-02-15 11:08:00,37.3,35.5,30.11,South,191,1.0,4.0,93,0.00,,,0.02,Wunderground v.1.15,2013-02-15 16:08:00,
2013-02-15 11:14:00,37.5,35.4,30.11,WSW,240,1.0,2.0,92,0.00,,,0.02,Wunderground v.1.15,2013-02-15 16:14:00,
2013-02-15 11:19:00,37.9,36.1,30.11,SSE,160,1.0,2.0,93,0.00,,,0.02,Wunderground v.1.15,2013-02-15 16:19:00,
2013-02-15 11:25:00,38.3,36.2,30.10,SSW,202,1.0,3.0,92,0.00,,,0.02,Wunderground v.1.15,2013-02-15 16:25:00,
2013-02-15 11:30:00,38.7,36.6,30.10,SSE,152,1.0,1.0,92,0.00,,,0.02,Wunderground v.1.15,2013-02-15 16:30:00,
2013-02-15 11:36:00,39.1,36.4,30.10,SW,222,1.0,4.0,90,0.00,,,0.02,Wunderground v.1.15,2013-02-15 16:36:00,
2013-02-15 11:42:00,39.5,36.5,30.10,WSW,240,1.0,1.0,89,0.00,,,0.02,Wunderground v.1.15,2013-02-15 16:42:00,
2013-02-15 11:47:00,39.6,36.0,30.10,SSW,210,1.0,4.0,87,0.00,,,0.02,Wunderground v.1.15,2013-02-15 16:47:00,
2013-02-15 11:53:00,39.9,36.3,30.10,WSW,245,1.0,2.0,87,0.00,,,0.02,Wunderground v.1.15,2013-02-15 16:53:00,
2013-02-15 11:59:00,40.4,37.1,30.10,WSW,255,1.0,3.0,88,0.00,,,0.02,Wunderground v.1.15,2013-02-15 16:59:00,
2013-02-15 12:04:00,40.4,36.8,30.10,SW,236,2.0,3.0,87,0.00,,,0.02,Wunderground v.1.15,2013-02-15 17:04:00,
2013-02-15 12:10:00,40.3,35.8,30.10,WSW,245,3.0,3.0,84,0.00,,,0.02,Wunderground v.1.15,2013-02-15 17:10:00,
2013-02-15 12:16:00,40.7,36.2,30.09,NW,307,2.0,4.0,84,0.00,,,0.02,Wunderground v.1.15,2013-02-15 17:16:00,
2013-02-15 12:22:00,40.6,35.8,30.10,WSW,248,1.0,1.0,83,0.00,,,0.02,Wunderground v.1.15,2013-02-15 17:22:00,
2013-02-15 12:28:00,40.6,35.8,30.09,WNW,283,1.0,3.0,83,0.00,,,0.02,Wunderground v.1.15,2013-02-15 17:28:00,
2013-02-15 12:33:00,40.3,35.8,30.09,WNW,297,3.0,3.0,84,0.00,,,0.02,Wunderground v.1.15,2013-02-15 17:33:00,
2013-02-15 12:39:00,40.2,35.1,30.09,WNW,288,3.0,6.0,82,0.00,,,0.02,Wunderground v.1.15,2013-02-15 17:39:00,
2013-02-15 12:44:00,40.0,35.6,30.09,WSW,242,3.0,3.0,84,0.00,,,0.02,Wunderground v.1.15,2013-02-15 17:44:00,
2013-02-15 12:50:00,39.9,34.9,30.09,WNW,283,3.0,5.0,82,0.00,,,0.02,Wunderground v.1.15,2013-02-15 17:50:00,
2013-02-15 12:56:00,39.6,34.9,30.09,West,281,4.0,5.0,83,0.00,,,0.02,Wunderground v.1.15,2013-02-15 17:56:00,
2013-02-15 13:02:00,39.2,34.2,30.09,WNW,300,5.0,10.0,82,0.00,,,0.02,Wunderground v.1.15,2013-02-15 18:02:00,
2013-02-15 13:08:00,38.8,33.8,30.09,WNW,302,6.0,10.0,82,0.00,,,0.02,Wunderground v.1.15,2013-02-15 18:08:00,
2013-02-15 13:13:00,38.5,33.5,30.09,WNW,291,6.0,6.0,82,0.00,,,0.02,Wunderground v.1.15,2013-02-15 18:13:00,
2013-02-15 13:19:00,38.4,33.7,30.09,West,272,5.0,5.0,83,0.00,,,0.02,Wunderground v.1.15,2013-02-15 18:19:00,
2013-02-15 13:25:00,38.2,33.5,30.09,WNW,298,5.0,7.0,83,0.00,,,0.02,Wunderground v.1.15,2013-02-15 18:25:00,
2013-02-15 13:30:00,38.1,33.7,30.09,WNW,302,5.0,6.0,84,0.00,,,0.02,Wunderground v.1.15,2013-02-15 18:30:00,
2013-02-15 13:36:00,38.1,33.7,30.09,WNW,295,5.0,8.0,84,0.00,,,0.02,Wunderground v.1.15,2013-02-15 18:36:00,
2013-02-15 13:41:00,38.1,33.4,30.09,West,274,5.0,8.0,83,0.00,,,0.02,Wunderground v.1.15,2013-02-15 18:41:00,
2013-02-15 13:47:00,38.0,33.3,30.09,WNW,291,5.0,9.0,83,0.00,,,0.02,Wunderground v.1.15,2013-02-15 18:47:00,
2013-02-15 13:53:00,37.7,33.0,30.09,WNW,298,6.0,9.0,83,0.00,,,0.02,Wunderground v.1.15,2013-02-15 18:53:00,
2013-02-15 13:59:00,37.3,33.5,30.09,WNW,297,6.0,11.0,86,0.00,,,0.02,Wunderground v.1.15,2013-02-15 18:59:00,
2013-02-15 14:04:00,37.0,33.8,30.09,NW,304,5.0,7.0,88,0.00,,,0.02,Wunderground v.1.15,2013-02-15 19:04:00,
2013-02-15 14:09:00,36.7,33.8,30.09,WNW,291,5.0,7.0,89,0.00,,,0.02,Wunderground v.1.15,2013-02-15 19:09:00,
2013-02-15 14:15:00,36.7,34.0,30.09,WNW,297,5.0,8.0,90,0.00,,,0.02,Wunderground v.1.15,2013-02-15 19:15:00,
2013-02-15 14:21:00,37.0,34.6,30.09,WNW,284,4.0,7.0,91,0.00,,,0.02,Wunderground v.1.15,2013-02-15 19:21:00,
2013-02-15 14:27:00,37.1,34.2,30.09,WNW,291,4.0,7.0,89,0.00,,,0.03,Wunderground v.1.15,2013-02-15 19:27:00,
2013-02-15 14:32:00,37.3,34.4,30.09,WSW,239,4.0,4.0,89,0.00,,,0.03,Wunderground v.1.15,2013-02-15 19:32:00,
2013-02-15 14:38:00,37.5,33.4,30.09,WSW,250,4.0,5.0,85,0.00,,,0.03,Wunderground v.1.15,2013-02-15 19:38:00,
2013-02-15 14:44:00,37.7,33.6,30.09,West,280,4.0,6.0,85,0.00,,,0.03,Wunderground v.1.15,2013-02-15 19:44:00,
2013-02-15 14:49:00,37.9,33.2,30.09,West,280,4.0,4.0,83,0.00,,,0.03,Wunderground v.1.15,2013-02-15 19:49:00,
2013-02-15 14:55:00,38.0,33.0,30.09,West,269,5.0,6.0,82,0.00,,,0.03,Wunderground v.1.15,2013-02-15 19:55:00,
2013-02-15 15:00:00,38.1,32.8,30.09,West,271,5.0,5.0,81,0.00,,,0.03,Wunderground v.1.15,2013-02-15 20:00:00,
2013-02-15 15:06:00,38.1,33.4,30.09,WNW,293,4.0,6.0,83,0.00,,,0.03,Wunderground v.1.15,2013-02-15 20:06:00,
2013-02-15 15:12:00,38.0,33.3,30.09,WNW,287,5.0,6.0,83,0.00,,,0.03,Wunderground v.1.15,2013-02-15 20:12:00,
2013-02-15 15:17:00,37.9,33.5,30.09,WNW,293,7.0,7.0,84,0.00,,,0.03,Wunderground v.1.15,2013-02-15 20:17:00,
2013-02-15 15:23:00,38.0,33.9,30.09,WNW,295,6.0,11.0,85,0.00,,,0.03,Wunderground v.1.15,2013-02-15 20:23:00,
2013-02-15 15:29:00,37.9,33.5,30.09,WNW,293,6.0,11.0,84,0.00,,,0.03,Wunderground v.1.15,2013-02-15 20:29:00,
2013-02-15 15:35:00,37.8,33.4,30.09,West,267,7.0,9.0,84,0.00,,,0.03,Wunderground v.1.15,2013-02-15 20:35:00,
2013-02-15 15:40:00,37.9,33.8,30.09,WSW,239,7.0,7.0,85,0.00,,,0.03,Wunderground v.1.15,2013-02-15 20:40:00,
2013-02-15 15:45:00,37.9,33.5,30.09,West,280,6.0,11.0,84,0.00,,,0.03,Wunderground v.1.15,2013-02-15 20:45:00,
2013-02-15 15:51:00,38.0,33.6,30.09,West,277,6.0,6.0,84,0.00,,,0.03,Wunderground v.1.15,2013-02-15 20:51:00,
2013-02-15 15:57:00,38.2,33.5,30.09,West,267,4.0,6.0,83,0.00,,,0.03,Wunderground v.1.15,2013-02-15 20:57:00,
2013-02-15 16:02:00,38.3,33.6,30.09,WSW,242,4.0,5.0,83,0.00,,,0.03,Wunderground v.1.15,2013-02-15 21:02:00,
2013-02-15 16:08:00,38.4,33.7,30.09,West,272,4.0,5.0,83,0.00,,,0.03,Wunderground v.1.15,2013-02-15 21:08:00,
2013-02-15 16:14:00,38.6,33.9,30.09,West,264,4.0,4.0,83,0.00,,,0.03,Wunderground v.1.15,2013-02-15 21:14:00,
2013-02-15 16:19:00,38.8,33.8,30.09,West,264,4.0,4.0,82,0.00,,,0.03,Wunderground v.1.15,2013-02-15 21:19:00,
2013-02-15 16:25:00,38.8,33.5,30.09,West,272,4.0,7.0,81,0.00,,,0.03,Wunderground v.1.15,2013-02-15 21:25:00,
2013-02-15 16:31:00,38.7,33.4,30.09,WSW,250,3.0,5.0,81,0.00,,,0.03,Wunderground v.1.15,2013-02-15 21:31:00,
2013-02-15 16:37:00,38.7,33.1,30.09,West,273,4.0,6.0,80,0.00,,,0.03,Wunderground v.1.15,2013-02-15 21:37:00,
2013-02-15 16:42:00,38.7,32.7,30.09,West,270,4.0,5.0,79,0.00,,,0.03,Wunderground v.1.15,2013-02-15 21:42:00,
2013-02-15 16:47:00,38.5,32.6,30.10,West,270,4.0,5.0,79,0.00,,,0.03,Wunderground v.1.15,2013-02-15 21:47:00,
2013-02-15 16:53:00,38.3,33.0,30.10,West,266,4.0,4.0,81,0.00,,,0.03,Wunderground v.1.15,2013-02-15 21:53:00,
2013-02-15 16:59:00,38.3,33.0,30.10,West,273,3.0,5.0,81,0.00,,,0.03,Wunderground v.1.15,2013-02-15 21:59:00,
2013-02-15 17:04:00,38.0,32.7,30.10,WNW,287,5.0,7.0,81,0.00,,,0.03,Wunderground v.1.15,2013-02-15 22:04:00,
2013-02-15 17:10:00,37.0,32.3,30.10,WNW,301,6.0,6.0,83,0.00,,,0.03,Wunderground v.1.15,2013-02-15 22:10:00,
2013-02-15 17:15:00,36.6,31.9,30.10,WNW,293,5.0,6.0,83,0.00,,,0.03,Wunderground v.1.15,2013-02-15 22:15:00,
2013-02-15 17:21:00,36.7,32.0,30.10,WNW,288,4.0,4.0,83,0.00,,,0.03,Wunderground v.1.15,2013-02-15 22:21:00,
2013-02-15 17:27:00,36.7,31.7,30.10,WNW,282,4.0,4.0,82,0.00,,,0.03,Wunderground v.1.15,2013-02-15 22:27:00,
2013-02-15 17:32:00,36.3,31.3,30.10,NW,304,3.0,4.0,82,0.00,,,0.03,Wunderground v.1.15,2013-02-15 22:32:00,
2013-02-15 17:38:00,36.0,31.0,30.10,WNW,297,3.0,6.0,82,0.00,,,0.03,Wunderground v.1.15,2013-02-15 22:38:00,
2013-02-15 17:44:00,35.7,31.0,30.10,WNW,284,3.0,3.0,83,0.00,,,0.03,Wunderground v.1.15,2013-02-15 22:44:00,
2013-02-15 17:49:00,35.6,31.2,30.10,WSW,243,2.0,2.0,84,0.00,,,0.03,Wunderground v.1.15,2013-02-15 22:49:00,
2013-02-15 17:55:00,35.6,31.2,30.10,WSW,243,2.0,2.0,84,0.00,,,0.03,Wunderground v.1.15,2013-02-15 22:55:00,
2013-02-15 18:01:00,35.4,31.0,30.10,WSW,252,1.0,2.0,84,0.00,,,0.03,Wunderground v.1.15,2013-02-15 23:01:00,
2013-02-15 18:07:00,35.2,30.9,30.10,WSW,246,2.0,4.0,84,0.00,,,0.03,Wunderground v.1.15,2013-02-15 23:07:00,
2013-02-15 18:12:00,34.9,30.6,30.10,WSW,253,2.0,2.0,84,0.00,,,0.03,Wunderground v.1.15,2013-02-15 23:12:00,
2013-02-15 18:18:00,34.8,30.8,30.11,WSW,250,1.0,2.0,85,0.00,,,0.03,Wunderground v.1.15,2013-02-15 23:18:00,
2013-02-15 18:23:00,34.4,30.4,30.11,WSW,254,0.0,1.0,85,0.00,,,0.03,Wunderground v.1.15,2013-02-15 23:23:00,
2013-02-15 18:29:00,34.1,30.4,30.11,WSW,255,0.0,1.0,86,0.00,,,0.03,Wunderground v.1.15,2013-02-15 23:29:00,
2013-02-15 18:34:00,33.7,30.2,30.11,WSW,255,0.0,0.0,87,0.00,,,0.03,Wunderground v.1.15,2013-02-15 23:34:00,
2013-02-15 18:40:00,33.4,29.9,30.11,West,262,0.0,0.0,87,0.00,,,0.03,Wunderground v.1.15,2013-02-15 23:40:00,
2013-02-15 18:45:00,32.9,29.7,30.12,WSW,250,0.0,0.0,88,0.00,,,0.03,Wunderground v.1.15,2013-02-15 23:45:00,
2013-02-15 18:51:00,32.7,29.8,30.12,WSW,252,0.0,0.0,89,0.00,,,0.03,Wunderground v.1.15,2013-02-15 23:51:00,
2013-02-15 18:57:00,32.5,29.6,30.12,WSW,252,0.0,1.0,89,0.00,,,0.03,Wunderground v.1.15,2013-02-15 23:57:00,
2013-02-15 19:02:00,32.5,29.6,30.12,WSW,253,0.0,2.0,89,0.00,,,0.03,Wunderground v.1.15,2013-02-16 00:02:00,
2013-02-15 19:08:00,32.7,29.5,30.12,West,259,0.0,2.0,88,0.00,,,0.03,Wunderground v.1.15,2013-02-16 00:08:00,
2013-02-15 19:13:00,32.7,29.3,30.12,WSW,243,0.0,1.0,87,0.00,,,0.03,Wunderground v.1.15,2013-02-16 00:13:00,
2013-02-15 19:19:00,32.4,29.0,30.13,West,270,0.0,1.0,87,0.00,,,0.03,Wunderground v.1.15,2013-02-16 00:19:00,
2013-02-15 19:25:00,32.3,28.9,30.13,West,277,0.0,1.0,87,0.00,,,0.03,Wunderground v.1.15,2013-02-16 00:25:00,
2013-02-15 19:31:00,32.3,28.9,30.13,West,276,0.0,0.0,87,0.00,,,0.03,Wunderground v.1.15,2013-02-16 00:31:00,
2013-02-15 19:36:00,32.2,28.8,30.13,West,276,0.0,0.0,87,0.00,,,0.03,Wunderground v.1.15,2013-02-16 00:36:00,
2013-02-15 19:41:00,32.4,29.0,30.14,NNW,328,1.0,2.0,87,0.00,,,0.03,Wunderground v.1.15,2013-02-16 00:41:00,
2013-02-15 19:47:00,32.9,29.5,30.14,West,272,2.0,2.0,87,0.00,,,0.03,Wunderground v.1.15,2013-02-16 00:47:00,
2013-02-15 19:52:00,33.4,29.4,30.14,WNW,287,3.0,5.0,85,0.00,,,0.03,Wunderground v.1.15,2013-02-16 00:52:00,
2013-02-15 19:58:00,33.7,29.1,30.14,WNW,302,3.0,5.0,83,0.00,,,0.03,Wunderground v.1.15,2013-02-16 00:58:00,
2013-02-15 20:04:00,33.8,28.9,30.14,NW,309,3.0,4.0,82,0.00,,,0.03,Wunderground v.1.15,2013-02-16 01:04:00,
2013-02-15 20:09:00,34.0,28.8,30.14,NW,323,2.0,4.0,81,0.00,,,0.03,Wunderground v.1.15,2013-02-16 01:09:00,
2013-02-15 20:15:00,34.2,28.7,30.14,NW,307,3.0,5.0,80,0.00,,,0.03,Wunderground v.1.15,2013-02-16 01:15:00,
2013-02-15 20:21:00,34.2,28.7,30.15,West,276,4.0,5.0,80,0.00,,,0.03,Wunderground v.1.15,2013-02-16 01:21:00,
2013-02-15 20:27:00,34.1,28.6,30.14,NW,304,3.0,5.0,80,0.00,,,0.03,Wunderground v.1.15,2013-02-16 01:27:00,
2013-02-15 20:32:00,33.9,28.7,30.15,NW,312,3.0,3.0,81,0.00,,,0.03,Wunderground v.1.15,2013-02-16 01:32:00,
2013-02-15 20:38:00,33.7,28.5,30.15,NW,314,3.0,4.0,81,0.00,,,0.03,Wunderground v.1.15,2013-02-16 01:38:00,
2013-02-15 20:43:00,33.6,28.4,30.15,NW,304,3.0,4.0,81,0.00,,,0.03,Wunderground v.1.15,2013-02-16 01:43:00,
2013-02-15 20:48:00,33.5,28.6,30.15,NW,319,3.0,5.0,82,0.00,,,0.03,Wunderground v.1.15,2013-02-16 01:48:00,
2013-02-15 20:54:00,33.3,28.4,30.15,NW,310,2.0,3.0,82,0.00,,,0.03,Wunderground v.1.15,2013-02-16 01:54:00,
2013-02-15 21:00:00,33.3,28.1,30.15,NW,305,2.0,4.0,81,0.00,,,0.03,Wunderground v.1.15,2013-02-16 02:00:00,
2013-02-15 21:05:00,33.2,28.0,30.15,WNW,297,3.0,6.0,81,0.00,,,0.03,Wunderground v.1.15,2013-02-16 02:05:00,
2013-02-15 21:11:00,33.2,27.7,30.15,NW,316,4.0,5.0,80,0.00,,,0.03,Wunderground v.1.15,2013-02-16 02:11:00,
2013-02-15 21:16:00,33.2,27.7,30.15,NW,316,4.0,7.0,80,0.00,,,0.03,Wunderground v.1.15,2013-02-16 02:16:00,
2013-02-15 21:22:00,33.2,27.4,30.16,NNW,338,4.0,8.0,79,0.00,,,0.03,Wunderground v.1.15,2013-02-16 02:22:00,
2013-02-15 21:27:00,33.1,27.6,30.16,NW,308,5.0,8.0,80,0.00,,,0.03,Wunderground v.1.15,2013-02-16 02:27:00,
2013-02-15 21:33:00,32.8,27.3,30.16,NW,314,4.0,5.0,80,0.00,,,0.03,Wunderground v.1.15,2013-02-16 02:33:00,
2013-02-15 21:38:00,32.5,27.0,30.16,North,11,4.0,7.0,80,0.00,,,0.03,Wunderground v.1.15,2013-02-16 02:38:00,
2013-02-15 21:44:00,32.4,26.9,30.16,NNW,341,4.0,6.0,80,0.00,,,0.03,Wunderground v.1.15,2013-02-16 02:44:00,
2013-02-15 21:50:00,32.2,26.4,30.16,NNW,327,4.0,5.0,79,0.00,,,0.03,Wunderground v.1.15,2013-02-16 02:50:00,
2013-02-15 21:56:00,31.9,26.1,30.17,NNW,330,3.0,8.0,79,0.00,,,0.03,Wunderground v.1.15,2013-02-16 02:56:00,
2013-02-15 22:01:00,31.8,26.0,30.17,NW,326,4.0,5.0,79,0.00,,,0.03,Wunderground v.1.15,2013-02-16 03:01:00,
2013-02-15 22:07:00,31.6,25.8,30.17,NW,315,4.0,9.0,79,0.00,,,0.03,Wunderground v.1.15,2013-02-16 03:07:00,
2013-02-15 22:12:00,31.4,25.6,30.17,WNW,300,4.0,4.0,79,0.00,,,0.03,Wunderground v.1.15,2013-02-16 03:12:00,
2013-02-15 22:18:00,31.0,25.2,30.17,NNW,338,4.0,7.0,79,0.00,,,0.03,Wunderground v.1.15,2013-02-16 03:18:00,
2013-02-15 22:24:00,30.7,25.3,30.17,NNW,330,4.0,7.0,80,0.00,,,0.03,Wunderground v.1.15,2013-02-16 03:24:00,
2013-02-15 22:29:00,30.5,25.4,30.17,NNW,327,3.0,3.0,81,0.00,,,0.03,Wunderground v.1.15,2013-02-16 03:29:00,
2013-02-15 22:35:00,30.3,25.2,30.17,NW,310,3.0,5.0,81,0.00,,,0.03,Wunderground v.1.15,2013-02-16 03:35:00,
2013-02-15 22:41:00,30.0,24.9,30.17,NNW,339,3.0,4.0,81,0.00,,,0.03,Wunderground v.1.15,2013-02-16 03:41:00,
2013-02-15 22:47:00,29.8,24.7,30.17,NNW,333,3.0,4.0,81,0.00,,,0.03,Wunderground v.1.15,2013-02-16 03:47:00,
2013-02-15 22:52:00,29.7,24.6,30.17,NNW,345,3.0,4.0,81,0.00,,,0.03,Wunderground v.1.15,2013-02-16 03:52:00,
2013-02-15 22:57:00,29.4,24.6,30.17,NNW,327,3.0,4.0,82,0.00,,,0.03,Wunderground v.1.15,2013-02-16 03:57:00,
2013-02-15 23:03:00,29.2,24.4,30.17,North,6,3.0,3.0,82,0.00,,,0.03,Wunderground v.1.15,2013-02-16 04:03:00,
2013-02-15 23:09:00,29.0,24.2,30.17,NW,319,3.0,4.0,82,0.00,,,0.03,Wunderground v.1.15,2013-02-16 04:09:00,
2013-02-15 23:14:00,28.8,24.0,30.17,NW,307,3.0,5.0,82,0.00,,,0.03,Wunderground v.1.15,2013-02-16 04:14:00,
2013-02-15 23:19:00,28.6,23.8,30.17,North,353,2.0,3.0,82,0.00,,,0.03,Wunderground v.1.15,2013-02-16 04:19:00,
2013-02-15 23:25:00,28.5,23.7,30.17,NNW,333,2.0,3.0,82,0.00,,,0.03,Wunderground v.1.15,2013-02-16 04:25:00,
2013-02-15 23:31:00,28.2,23.7,30.17,NW,315,1.0,2.0,83,0.00,,,0.03,Wunderground v.1.15,2013-02-16 04:31:00,
2013-02-15 23:36:00,28.1,23.6,30.17,NW,304,1.0,4.0,83,0.00,,,0.03,Wunderground v.1.15,2013-02-16 04:36:00,
2013-02-15 23:42:00,27.9,23.4,30.17,NNW,342,1.0,1.0,83,0.00,,,0.03,Wunderground v.1.15,2013-02-16 04:42:00,
2013-02-15 23:48:00,27.7,23.5,30.17,North,356,1.0,3.0,84,0.00,,,0.03,Wunderground v.1.15,2013-02-16 04:48:00,
2013-02-15 23:54:00,27.5,23.3,30.17,NW,323,1.0,1.0,84,0.00,,,0.03,Wunderground v.1.15,2013-02-16 04:54:00,